This is the latest recevied weather packets stored in our database for station/object KK4KTV-13. If no packets are shown the sender has not sent any weather packets the latest 10 day(s).
| Time | Temp. | Humidity | Pressure | Rain* | Wind** | Luminosity | Snow |
|---|---|---|---|---|---|---|---|
| 1777581057 | 16.67° C | 45% | 1014.3 hPa | 0 mm | - | 514 W/m² | - |
| 1777580756 | 16.67° C | 43% | 1014.3 hPa | 0 mm | - | 525 W/m² | - |
| 1777580454 | 16.67° C | 44% | 1014.5 hPa | 0 mm | - | 539 W/m² | - |
| 1777580148 | 16.67° C | 44% | 1014.7 hPa | 0 mm | - | 556 W/m² | - |
| 1777579846 | 16.67° C | 45% | 1014.7 hPa | 0 mm | - | 602 W/m² | - |
| 1777579544 | 16.67° C | 47% | 1014.8 hPa | 0 mm | - | 650 W/m² | - |
| 1777579244 | 16.11° C | 47% | 1014.9 hPa | 0 mm | - | 617 W/m² | - |
| 1777578940 | 16.67° C | 47% | 1014.9 hPa | 0 mm | - | 616 W/m² | - |
| 1777578635 | 16.11° C | 46% | 1015 hPa | 0 mm | - | 689 W/m² | - |
| 1777578334 | 16.11° C | 48% | 1015 hPa | 0 mm | - | 628 W/m² | - |
| 1777578031 | 16.11° C | 46% | 1015 hPa | 0 mm | - | 662 W/m² | - |
| 1777577726 | 16.67° C | 45% | 1015 hPa | 0 mm | - | 633 W/m² | - |
| 1777577423 | 17.22° C | 45% | 1014.9 hPa | 0 mm | - | 651 W/m² | - |
| 1777577120 | 16.67° C | 47% | 1014.9 hPa | 0 mm | - | 665 W/m² | - |
| 1777576816 | 15.56° C | 49% | 1015.4 hPa | 0 mm | - | 688 W/m² | - |
| 1777576515 | 16.67° C | 49% | 1015.2 hPa | 0 mm | - | 791 W/m² | - |
| 1777576212 | 15.56° C | 49% | 1015.3 hPa | 0 mm | - | 670 W/m² | - |
| 1777575908 | 16.67° C | 47% | 1015.3 hPa | 0 mm | - | 192 W/m² | - |
| 1777575604 | 16.11° C | 51% | 1015.5 hPa | 0 mm | - | 771 W/m² | - |
| 1777575300 | 15.56° C | 49% | 1015.3 hPa | 0 mm | - | 749 W/m² | - |
| 1777574996 | 16.11° C | 50% | 1015.4 hPa | 0 mm | - | 794 W/m² | - |
| 1777574693 | 15.56° C | 50% | 1015.4 hPa | 0 mm | - | 812 W/m² | - |
| 1777574390 | 15° C | 52% | 1015.2 hPa | 0 mm | - | 783 W/m² | - |
| 1777574085 | 15.56° C | 48% | 1015.1 hPa | 0 mm | - | 767 W/m² | - |
| 1777573780 | 15.56° C | 50% | 1015.1 hPa | 0 mm | - | 753 W/m² | - |
* Rain latest hour (hover to see other rain measurements)
** Current wind speed in m/s (hover to see current wind gust speed)